Vertical_Velocity
-1 1 0 1 0 2 1 -2 -1 -1 -1 -1 -3 -1 2 1 -0 1 9 3 -2 4 5 2 3 -0 -0 1 0 -1 -4 -8 5 -0 3 2 8 4 -1 1 0 1 -0 0 1 3 1 0 2 1 1 -0 0 -1
-1 2 2 2 1 -2 -3 -2 -6 -1 -1 -2 -3 1 -5 -1 0 -0 1 -1 2 4 -1 10 10 5 1 -2 -5 1 1 5 8 1 4 -0 11 3 2 0 2 1 -1 -1 -2 1 -0 1 0 2 2 1 0 1
1 1 3 -0 -1 -1 -7 -2 -1 0 -1 -3 -2 -1 1 -0 1 -4 -5 -0 3 2 6 4 1 2 -3 -0 -1 -7 10 9 4 1 8 2 -2 -1 -1 0 0 -0 -1 -0 0 -0 1 0 2 2 1 1 1 -0
2 0 -4 0 -6 -5 -1 -1 0 -3 -3 1 1 -3 2 -4 -3 -5 1 -1 1 3 12 1 5 1 -0 0 -1 0 1 1 3 -0 4 -0 -0 -0 -1 -1 2 -1 1 0 1 2 0 1 1 1 0 0 0 -1
-2 -1 -2 -7 -1 2 2 -1 -4 -2 -1 -1 -0 -2 1 -6 1 4 1 -1 2 0 16 3 1 0 1 0 -0 -0 2 3 2 0 -0 -1 1 1 2 -0 1 1 1 1 0 0 -0 0 -1 -1 -1 -1 -1 0
-2 -3 -2 2 2 -2 -3 -5 -2 -2 -2 -2 -0 -3 -4 7 3 1 -2 1 -1 2 3 3 1 -1 -1 -2 -2 -0 8 5 3 2 -0 -0 0 -0 -1 -1 0 1 0 0 -0 0 0 -0 -1 -1 -1 -0 -0 -1
-1 1 4 -0 -4 -6 -3 -3 -4 -1 -4 -5 -0 -1 3 2 1 0 4 -0 2 1 5 3 -0 1 2 1 -0 -0 4 3 2 -0 -1 0 1 0 -0 -1 1 1 0 1 1 1 2 1 0 -0 -1 -0 -0 -1
2 2 -3 -7 -5 -4 -7 -3 -0 -3 -5 -8 2 2 1 3 -1 -1 1 1 1 -1 0 2 -1 -1 2 1 1 0 1 1 -0 0 -0 0 1 1 -2 0 0 0 0 0 0 0 -0 -1 -1 -0 -0 -0 0 -0
-3 -5 -5 -5 -7 -4 -1 -1 -1 -4 1 9 3 4 3 6 2 -1 -1 -2 -5 -2 1 1 1 -2 2 2 1 -0 -1 -1 0 -1 -1 0 -0 -2 0 -0 -1 -1 -0 0 -0 -1 -1 -1 -0 -0 -0 -0 -1 -0
-3 -8 -9 -5 -1 -0 -1 -4 -1 7 7 7 4 1 1 -1 -0 -2 -0 -2 -0 -3 -4 -2 2 -0 -0 1 0 1 0 -2 -1 -1 1 -1 -2 1 0 0 0 -0 -0 -0 -1 -1 -1 -1 -1 -1 -1 -0 -0 -0
-11 -3 -2 1 -1 -4 -3 1 4 4 2 2 2 0 0 -2 -2 -4 -4 -2 -2 -1 -1 0 -0 -1 1 1 -1 1 1 0 -2 1 -1 0 0 1 1 1 0 0 -0 -0 -1 -1 -1 -1 -1 -1 -1 -1 -0 1
1 -1 -1 -4 -4 0 2 0 2 3 4 2 0 -2 -3 -5 -4 -3 -6 -2 -2 -2 -0 0 0 -1 -1 -0 -0 0 -0 0 -2 0 -1 -0 1 1 0 0 0 -0 -0 -0 -0 0 0 0 -0 -1 -2 -2 -1 -0
-1 -2 -3 2 -0 -2 -1 1 3 4 1 -0 -4 -4 -4 -4 -8 -9 -3 -2 -1 0 1 -0 -1 -1 -2 -0 -0 -0 -1 -1 0 -2 -1 1 0 1 0 0 -0 -1 -0 -0 0 -0 -0 -0 -0 -1 -0 -1 -1 -1
-1 2 1 -1 2 1 2 2 2 -1 -2 -6 -6 -7 -5 -3 -2 -0 1 -0 0 1 1 1 -1 -1 1 -0 -0 -1 -1 0 -1 -2 2 -1 1 0 -0 -0 -0 1 1 0 -0 0 -0 -0 0 -0 -0 -0 -0 -1
-1 -3 -3 4 2 3 -1 -5 -4 -1 -3 -7 -2 -6 -5 -0 1 1 1 1 -0 0 -0 0 -3 -1 -0 -1 -1 0 -1 -2 -1 -1 -1 0 0 -1 -0 -0 -0 -0 0 0 -0 0 -0 -1 -1 -1 -1 -0 -1 -1
1 7 6 0 -3 -8 -13 -14 -10 0 -21 -20 -7 -2 1 4 0 2 1 0 -1 -1 -0 -1 -1 -0 -1 -2 -1 -2 -1 -0 -2 0 0 -0 0 0 -0 0 -0 -0 -1 -1 -1 -1 -1 -1 -1 -0 -1 -1 -1 -2
2 -1 -1 -5 -11 -10 -12 -4 10 -17 -29 -9 -2 1 -2 -0 -1 -1 -0 -2 0 -1 -1 -1 -2 -1 -0 -1 -3 -2 -0 1 1 0 -0 -0 -1 0 1 1 -0 -1 -1 -1 -0 -0 -1 -1 -1 -1 0 -0 -1 -1
-3 -7 -8 -9 -9 -4 -1 5 -28 -16 -16 4 -4 -1 -1 -1 0 -1 -1 -1 4 -0 -0 -9 2 -4 -2 -3 -0 2 2 3 1 -1 0 1 1 1 -1 0 1 -0 -0 -0 -1 -0 -0 -0 0 0 -0 -1 0 -1
-5 -5 -7 -0 8 10 -22 -15 -14 -18 -2 -2 0 -1 -2 -4 -3 -1 1 -0 1 1 -7 -6 -2 -3 0 1 1 1 1 -0 -1 0 0 -0 -1 -0 0 -0 -1 0 -0 -1 0 0 0 -1 -1 -0 0 -0 -0 0
-6 -4 -2 0 5 -1 -31 -11 -13 -7 1 2 4 0 -3 -4 2 2 4 2 4 -8 -11 -11 -1 2 2 1 1 0 0 0 -1 2 1 -1 -0 0 -1 -1 -0 -0 1 1 1 -1 -2 1 -1 -2 -1 -1 -3 -0
2 -16 -5 18 -1 -23 -24 -6 -7 -7 0 -1 3 -1 -1 5 1 -1 -3 3 -5 -17 -4 1 1 0 1 -0 -1 -0 -0 -0 -0 -1 -2 -0 0 -1 -1 -0 -0 -0 -2 -2 -1 2 1 -1 -1 -1 -2 0 0 1
-9 7 3 -3 -16 -20 -10 -1 -6 -2 -1 2 -2 1 4 2 -1 -5 -1 -7 -13 -1 -1 1 1 1 1 2 2 2 1 0 -0 0 1 0 1 2 3 -0 -1 1 0 -2 -1 -1 0 -1 -1 -0 -1 0 -0 0
4 2 -8 -12 -13 -2 1 1 -4 -4 -3 1 -1 -4 -2 -5 -2 -3 -7 -3 -1 1 0 -1 -2 -0 0 1 1 -0 -0 1 1 2 2 1 0 -1 -0 -1 -2 -1 1 3 -0 -1 -0 0 -0 -1 0 -0 -2 -0
-3 -11 -11 -11 -1 -3 3 -2 -3 -3 2 -2 -3 -3 -2 -1 -0 -4 -3 -1 1 3 2 1 3 4 3 2 1 -0 0 -0 -1 -2 -1 -0 1 2 -1 -0 0 0 -1 -2 -1 -1 -2 -0 -1 -0 -0 -0 0 -1
-6 -12 -3 -3 -2 -0 -2 -1 -3 -2 -3 -2 -4 -1 -0 -1 -3 -3 -0 2 3 1 1 0 -2 -2 0 1 -0 -0 0 1 1 1 1 0 3 4 3 2 -0 -4 -1 1 1 0 2 1 0 -0 -0 -1 0 1
-12 -4 -5 2 -3 -1 -4 -2 -1 -0 -2 -5 -2 -4 -2 -4 -2 -2 1 -0 -1 -1 -1 -1 -0 2 0 -3 -1 0 -0 0 1 -0 0 -0 -1 -2 -1 -2 1 4 0 -1 -1 3 0 -1 0 1 1 0 -1 -1
-12 -1 1 -1 -2 -3 -3 1 -1 -7 -5 -3 -1 -3 -3 -2 0 3 2 1 1 1 1 1 1 1 1 3 4 2 2 1 -1 -2 -2 0 0 -0 -1 -2 0 -0 0 3 1 -2 1 3 2 1 1 2 -1 1
-3 4 -1 0 -3 2 -3 -6 -9 -3 -2 -0 -7 -4 0 1 1 0 1 2 2 1 -1 -0 -0 -2 -1 1 0 1 3 2 1 -0 2 3 1 -0 -0 -0 -1 -1 -2 -5 -2 0 1 1 2 4 2 -0 1 0
-2 0 2 2 -3 -8 -4 -7 -2 -3 1 -0 -2 -2 1 1 2 3 2 0 1 2 4 3 4 4 3 0 1 3 2 2 3 4 3 4 5 3 -1 -1 -0 1 2 4 2 -1 -1 -1 -3 -4 -1 1 2 2
-0 4 -2 2 -9 -10 -3 -4 0 0 -0 -2 -1 0 0 1 1 2 1 2 2 -0 -3 0 7 -1 -1 4 5 2 -0 1 1 -1 -2 -2 -1 2 3 5 6 6 5 4 3 2 1 2 2 1 -0 -1 0 1
-1 1 -3 -5 -7 -2 -2 -1 -2 -2 -1 -0 0 -0 -0 0 2 0 -0 -0 1 0 8 1 0 1 -1 -2 0 5 8 4 2 1 1 2 2 4 4 4 2 1 1 1 2 2 2 1 1 1 1 1 -1 -1
-2 -3 -3 -4 -3 -2 -2 -1 -1 -1 0 0 -1 1 1 3 -4 -2 1 -1 1 4 -1 3 3 -0 1 3 3 2 3 4 1 5 5 1 -1 -5 -10 -8 -3 -3 -0 0 0 -1 -0 1 1 1 2 1 1 1
-3 -2 -2 -3 -3 -2 -0 -3 1 -2 -2 -1 -0 1 -0 -2 -6 0 2 0 1 0 -2 -2 -1 -2 -0 1 1 2 4 -1 -3 1 11 0 0 -1 3 4 3 2 0 0 1 1 2 2 2 2 2 1 1 2
Height
3068 3069 3068 3067 3063 3060 3055 3049 3044 3039 3032 3026 3020 3017 3014 3010 3006 3004 3002 2998 2996 2993 2990 2986 2985 2984 2983 2981 2980 2980 2980 2978 2977 2977 2976 2975 2972 2973 2975 2977 2978 2980 2981 2982 2981 2981 2983 2983 2984 2985 2986 2983 2984 2983
3065 3065 3063 3060 3056 3051 3046 3042 3036 3028 3022 3017 3014 3011 3007 3003 3000 2997 2995 2991 2988 2986 2983 2981 2978 2978 2978 2976 2975 2974 2975 2975 2974 2974 2974 2972 2971 2972 2974 2976 2977 2980 2980 2981 2983 2981 2980 2980 2981 2982 2982 2982 2982 2980
3061 3059 3057 3053 3048 3043 3039 3032 3025 3019 3015 3013 3009 3005 3001 2997 2992 2990 2986 2984 2981 2979 2977 2975 2974 2974 2973 2971 2970 2971 2971 2971 2970 2971 2971 2970 2971 2973 2974 2975 2975 2976 2977 2979 2981 2980 2980 2980 2981 2981 2981 2980 2979 2978
3056 3053 3049 3044 3041 3035 3027 3021 3017 3014 3010 3006 3002 2998 2994 2990 2985 2982 2980 2979 2976 2975 2974 2973 2971 2970 2969 2968 2967 2967 2967 2968 2968 2968 2969 2969 2971 2973 2973 2974 2975 2977 2977 2977 2978 2979 2979 2980 2980 2980 2979 2978 2977 2975
3049 3045 3042 3037 3030 3024 3019 3016 3012 3008 3004 2999 2996 2991 2987 2981 2979 2978 2977 2975 2972 2973 2971 2969 2969 2968 2967 2966 2965 2965 2966 2967 2967 2967 2968 2969 2969 2972 2972 2974 2974 2975 2976 2977 2977 2977 2978 2979 2978 2977 2976 2975 2974 2973
3043 3039 3031 3026 3022 3018 3014 3010 3006 3002 2998 2993 2988 2984 2979 2978 2976 2975 2974 2972 2969 2968 2968 2966 2966 2966 2965 2965 2964 2964 2964 2965 2966 2966 2967 2968 2969 2971 2971 2972 2975 2975 2975 2975 2976 2976 2976 2976 2976 2975 2974 2972 2971 2969
3033 3028 3025 3021 3017 3013 3008 3005 3001 2996 2990 2985 2980 2976 2974 2973 2972 2972 2971 2967 2965 2964 2965 2965 2965 2965 2965 2964 2964 2964 2964 2964 2965 2965 2966 2967 2968 2970 2970 2972 2974 2974 2974 2975 2975 2975 2975 2974 2973 2973 2971 2970 2968 2967
3027 3024 3019 3015 3011 3008 3004 2999 2993 2987 2981 2976 2973 2971 2971 2970 2968 2967 2964 2963 2962 2963 2964 2964 2964 2965 2965 2964 2964 2964 2964 2964 2964 2964 2966 2967 2969 2969 2971 2973 2973 2973 2973 2973 2973 2972 2972 2972 2971 2970 2969 2967 2966 2964
3021 3018 3013 3010 3006 3002 2996 2991 2985 2980 2976 2974 2972 2970 2970 2968 2966 2964 2963 2963 2961 2963 2962 2963 2964 2965 2965 2964 2964 2965 2964 2964 2966 2966 2967 2969 2968 2970 2973 2973 2973 2973 2972 2972 2971 2970 2970 2969 2968 2967 2966 2965 2963 2962
3017 3013 3009 3004 2999 2994 2989 2984 2979 2976 2974 2972 2971 2970 2967 2966 2965 2966 2964 2964 2963 2962 2962 2964 2966 2965 2967 2965 2965 2967 2965 2965 2966 2969 2969 2969 2971 2974 2973 2973 2973 2972 2971 2970 2969 2969 2968 2966 2965 2964 2963 2962 2961 2959
3013 3007 3002 2997 2993 2988 2982 2977 2974 2972 2970 2969 2968 2968 2967 2966 2966 2965 2965 2965 2966 2967 2968 2968 2967 2966 2967 2967 2966 2967 2966 2967 2968 2971 2971 2972 2974 2974 2974 2973 2972 2971 2969 2968 2967 2966 2965 2964 2963 2961 2960 2959 2957 2956
3006 3002 2998 2992 2986 2981 2978 2974 2971 2970 2968 2968 2969 2968 2969 2968 2968 2969 2969 2971 2971 2971 2971 2970 2969 2968 2968 2968 2968 2969 2968 2969 2971 2972 2973 2975 2976 2975 2973 2972 2971 2969 2968 2967 2965 2964 2962 2961 2960 2958 2957 2956 2954 2953
3004 2998 2993 2988 2984 2979 2975 2972 2970 2969 2969 2969 2970 2970 2971 2974 2975 2976 2977 2976 2975 2975 2973 2971 2971 2970 2969 2970 2970 2970 2970 2972 2974 2974 2976 2978 2976 2974 2973 2971 2970 2968 2966 2965 2963 2961 2960 2958 2957 2956 2954 2953 2951 2950
2999 2995 2992 2987 2983 2979 2975 2972 2971 2970 2971 2971 2972 2974 2978 2983 2985 2983 2981 2979 2978 2977 2976 2974 2972 2972 2972 2972 2971 2972 2974 2975 2976 2979 2980 2978 2975 2973 2972 2970 2968 2966 2964 2963 2961 2959 2957 2955 2953 2952 2950 2949 2948 2946
2999 2995 2991 2987 2983 2980 2976 2973 2971 2970 2971 2972 2978 2983 2989 2989 2988 2985 2982 2980 2980 2979 2978 2977 2975 2975 2974 2974 2975 2976 2977 2979 2981 2982 2979 2977 2975 2972 2970 2968 2966 2964 2962 2960 2958 2955 2953 2952 2950 2948 2946 2945 2943 2942
3000 2998 2993 2989 2984 2980 2976 2973 2972 2971 2970 2978 2986 2993 2993 2992 2990 2988 2985 2982 2980 2979 2979 2978 2977 2977 2978 2978 2980 2980 2983 2984 2984 2981 2978 2976 2974 2971 2969 2966 2964 2961 2959 2957 2955 2953 2950 2948 2946 2945 2943 2941 2939 2937
3001 2997 2994 2990 2985 2982 2979 2979 2979 2973 2981 2991 2995 2997 2997 2996 2993 2991 2989 2986 2984 2981 2980 2979 2981 2982 2984 2985 2986 2987 2987 2985 2982 2980 2978 2975 2972 2970 2967 2964 2962 2959 2956 2954 2952 2949 2947 2945 2943 2941 2939 2937 2935 2933
3002 2999 2996 2992 2990 2988 2989 2986 2981 2987 2992 3000 3001 3002 3001 3000 2998 2996 2993 2991 2990 2987 2985 2984 2987 2986 2989 2991 2990 2989 2987 2985 2982 2979 2977 2974 2971 2968 2965 2962 2960 2957 2954 2951 2948 2946 2943 2941 2939 2936 2934 2932 2930 2928
3006 3004 3001 3000 3000 2997 2992 2994 2994 2995 3004 3006 3008 3008 3007 3005 3003 3001 3000 2997 2995 2992 2990 2989 2992 2993 2993 2993 2991 2989 2987 2984 2981 2979 2976 2972 2970 2967 2964 2961 2958 2955 2952 2949 2946 2943 2940 2937 2934 2932 2929 2927 2925 2923
3010 3008 3007 3007 3006 3000 2998 3004 3005 3007 3012 3015 3015 3014 3012 3010 3009 3008 3006 3003 3001 2997 2996 2995 2997 2997 2996 2994 2992 2989 2986 2983 2980 2978 2975 2971 2968 2965 2962 2959 2956 2952 2949 2946 2943 2939 2936 2934 2931 2928 2925 2922 2920 2918
3018 3015 3015 3016 3008 3003 3007 3012 3014 3018 3020 3020 3021 3019 3018 3017 3015 3013 3011 3009 3004 2999 3001 3003 3002 3000 2998 2995 2992 2990 2986 2983 2980 2976 2973 2970 2967 2963 2960 2956 2953 2949 2945 2941 2938 2936 2932 2929 2926 2923 2920 2918 2915 2913
3024 3025 3022 3019 3013 3013 3019 3023 3025 3026 3027 3027 3026 3025 3024 3022 3020 3017 3015 3011 3008 3009 3008 3007 3005 3003 3000 2997 2994 2990 2987 2983 2980 2976 2972 2969 2965 2962 2958 2953 2949 2945 2941 2937 2933 2930 2926 2923 2919 2916 2913 2911 2909 2907
3033 3031 3025 3023 3023 3027 3033 3032 3032 3031 3033 3033 3032 3030 3029 3027 3025 3023 3019 3018 3017 3016 3013 3011 3008 3005 3002 2999 2995 2991 2987 2983 2980 2976 2972 2967 2963 2958 2954 2950 2946 2942 2938 2934 2929 2925 2921 2917 2913 2910 2907 2904 2901 2900
3039 3032 3031 3033 3036 3039 3041 3039 3039 3038 3039 3038 3037 3036 3035 3033 3032 3029 3026 3025 3023 3021 3018 3015 3012 3008 3004 3000 2996 2992 2988 2983 2979 2974 2970 2966 2962 2958 2953 2948 2943 2939 2934 2930 2926 2921 2917 2913 2909 2905 2901 2898 2895 2892
3044 3044 3046 3046 3046 3047 3046 3046 3045 3046 3045 3045 3043 3042 3041 3039 3037 3034 3032 3031 3029 3025 3021 3017 3013 3009 3005 3001 2997 2992 2987 2983 2979 2974 2970 2965 2961 2956 2952 2947 2942 2936 2932 2928 2923 2919 2914 2910 2906 2901 2897 2894 2890 2887
3048 3053 3056 3055 3055 3053 3052 3052 3052 3052 3051 3049 3049 3047 3046 3043 3042 3041 3039 3036 3032 3029 3025 3021 3017 3013 3009 3003 2999 2995 2990 2985 2980 2975 2971 2966 2961 2955 2950 2945 2941 2937 2931 2926 2921 2917 2912 2908 2903 2899 2895 2891 2887 2883
3058 3063 3063 3063 3062 3061 3060 3060 3060 3058 3057 3056 3055 3052 3050 3049 3050 3049 3044 3041 3037 3033 3029 3025 3020 3016 3011 3007 3002 2996 2991 2986 2980 2976 2970 2965 2960 2955 2950 2945 2940 2935 2930 2925 2920 2915 2911 2907 2902 2897 2893 2888 2884 2880
3068 3071 3072 3072 3071 3070 3069 3067 3065 3065 3064 3064 3062 3060 3059 3059 3058 3054 3050 3047 3043 3038 3034 3030 3026 3020 3015 3010 3005 3000 2996 2990 2985 2979 2974 2969 2963 2957 2952 2947 2941 2935 2929 2924 2920 2916 2911 2906 2901 2896 2891 2887 2882 2878
3078 3079 3080 3080 3079 3076 3075 3074 3074 3074 3074 3072 3070 3067 3067 3065 3063 3060 3056 3052 3049 3045 3041 3037 3032 3027 3022 3016 3010 3005 2999 2994 2989 2983 2978 2972 2967 2961 2954 2948 2943 2938 2934 2929 2923 2917 2911 2905 2899 2894 2890 2886 2882 2878
3088 3088 3088 3088 3085 3083 3084 3083 3083 3082 3081 3079 3077 3075 3073 3071 3069 3065 3062 3059 3055 3051 3046 3042 3038 3032 3027 3023 3018 3012 3005 2999 2993 2987 2981 2975 2969 2964 2958 2952 2947 2941 2936 2930 2925 2919 2914 2908 2902 2897 2892 2887 2882 2878
3095 3097 3096 3095 3093 3092 3092 3091 3090 3089 3087 3086 3084 3082 3080 3077 3075 3072 3068 3065 3061 3057 3053 3048 3043 3038 3033 3027 3022 3017 3012 3006 2999 2993 2987 2981 2975 2969 2963 2957 2950 2944 2938 2931 2925 2920 2914 2909 2904 2899 2894 2889 2884 2879
3104 3104 3103 3102 3102 3101 3099 3098 3097 3096 3095 3093 3091 3089 3087 3084 3081 3078 3075 3071 3067 3063 3058 3054 3049 3044 3039 3033 3028 3022 3016 3010 3004 2999 2993 2987 2980 2974 2966 2960 2954 2947 2941 2935 2928 2922 2916 2910 2905 2900 2895 2891 2886 2881
3111 3110 3110 3109 3109 3108 3107 3105 3104 3103 3101 3099 3098 3095 3093 3091 3087 3084 3081 3077 3074 3069 3065 3060 3056 3051 3046 3041 3036 3030 3024 3018 3012 3006 3001 2993 2987 2979 2973 2967 2960 2953 2946 2940 2933 2927 2921 2915 2909 2903 2898 2893 2888 2883